Location: Góry Miechowskie
(50.3599°N, 20.1803°E)
Time: 02:57:04
(UTC+00:00)

Vanguard 2 Rocket - Pass Details

Date: 13 September 2024
Orbit: 553 x 3298 km, 32.9° (Epoch: 14 October)

Event Time Altitude Azimuth Distance (km) Brightness Sun altitude
Exits shadow 02:42:41 16° 234° (SW) 4,412 9.7 -14.6°
Maximum altitude 02:53:54 42° 176° (S) 3,746 9.8 -12.9°
Drops below altitude 10° 03:11:32 10° 115° (ESE) 6,249 11.9 -10.3°
Sets 03:16:45 0° 110° (ESE) 7,222 12.4 -9.5°
